| time (UTC) | temp F | wind direction | speed MPH | gust MPH | rain 1hr in | rain 24hr in | rain mn in | humidity % | barometer mb |
| 20260905052702 | 80 | 200 | 2.0 | 3.0 | 0.00 | 0.00 | 0.00 | 76 | 1015.8 |
| 20260905052157 | 81 | 192 | 2.0 | 2.0 | 0.00 | 0.00 | 0.00 | 75 | 1016.1 |
| 20260905051652 | 81 | 209 | 1.0 | 3.0 | 0.00 | 0.00 | 0.00 | 74 | 1015.9 |
| 20260905051149 | 81 | 243 | 2.0 | 4.0 | 0.00 | 0.00 | 0.00 | 74 | 1015.9 |
| 20260905050645 | 81 | 190 | 4.0 | 4.0 | 0.00 | 0.00 | 0.00 | 74 | 1015.8 |
| 20260905050142 | 81 | 215 | 1.0 | 2.0 | 0.00 | 0.00 | 0.00 | 74 | 1015.9 |
| 20260905045641 | 81 | 193 | 2.0 | 3.0 | 0.00 | 0.00 | 0.00 | 74 | 1015.9 |
| 20260905045137 | 81 | 199 | 2.0 | 2.0 | 0.00 | 0.00 | 0.00 | 74 | 1015.8 |
| 20260905044636 | 81 | 202 | 1.0 | 2.0 | 0.00 | 0.00 | 0.00 | 73 | 1015.9 |
| 20260905044131 | 81 | 168 | 2.0 | 3.0 | 0.00 | 0.00 | 0.00 | 73 | 1015.8 |
| 20260905043630 | 81 | 211 | 1.0 | 2.0 | 0.00 | 0.00 | 0.00 | 73 | 1016.0 |
| 20260905043125 | 81 | 212 | 1.0 | 2.0 | 0.00 | 0.00 | 0.00 | 74 | 1015.9 |
| 20260905042624 | 81 | 192 | 1.0 | 3.0 | 0.00 | 0.00 | 0.00 | 74 | 1015.9 |
| 20260905042120 | 81 | 203 | 1.0 | 2.0 | 0.00 | 0.00 | 0.00 | 74 | 1015.9 |
| 20260905041615 | 81 | 219 | 0.0 | 1.0 | 0.00 | 0.00 | 0.00 | 74 | 1015.8 |
| 20260905041111 | 81 | 201 | 0.0 | 1.0 | 0.00 | 0.00 | 0.00 | 74 | 1015.9 |
| 20260905040610 | 81 | 226 | 0.0 | 0.0 | 0.00 | 0.00 | 0.00 | 73 | 1016.0 |
| 20260905040109 | 82 | 213 | 0.0 | 0.0 | 0.00 | 0.00 | 0.00 | 72 | 1015.8 |
| 20260905035604 | 82 | 224 | 0.0 | 0.0 | 0.00 | 0.00 | 0.00 | 72 | 1016.2 |
| 20260905035101 | 82 | 234 | 0.0 | 0.0 | 0.00 | 0.00 | 0.00 | 71 | 1015.9 |
| 20260905034557 | 82 | 234 | 0.0 | 0.0 | 0.00 | 0.00 | 0.00 | 71 | 1015.9 |
| 20260905034056 | 82 | 226 | 1.0 | 2.0 | 0.00 | 0.00 | 0.00 | 70 | 1015.9 |
| 20260905033550 | 83 | 206 | 0.0 | 0.0 | 0.00 | 0.00 | 0.00 | 70 | 1015.9 |
| 20260905033046 | 83 | 229 | 0.0 | 1.0 | 0.00 | 0.00 | 0.00 | 69 | 1015.9 |
| 20260905032546 | 83 | 218 | 0.0 | 2.0 | 0.00 | 0.00 | 0.00 | 69 | 1015.9 |
| 20260905032041 | 83 | 239 | 1.0 | 4.0 | 0.00 | 0.00 | 0.00 | 69 | 1015.9 |
| 20260905031537 | 83 | 232 | 1.0 | 2.0 | 0.00 | 0.00 | 0.00 | 69 | 1015.9 |
| 20260905031037 | 84 | 216 | 1.0 | 2.0 | 0.00 | 0.00 | 0.00 | 68 | 1015.8 |
| 20260905030532 | 84 | 131 | 1.0 | 4.0 | 0.00 | 0.00 | 0.00 | 68 | 1015.7 |
| 20260905030032 | 84 | 214 | 1.0 | 3.0 | 0.00 | 0.00 | 0.00 | 68 | 1015.8 |
| 20260905025527 | 84 | 211 | 1.0 | 2.0 | 0.00 | 0.00 | 0.00 | 68 | 1015.7 |
| 20260905025024 | 84 | 201 | 1.0 | 3.0 | 0.00 | 0.00 | 0.00 | 67 | 1015.7 |
| 20260905024519 | 85 | 222 | 2.0 | 3.0 | 0.00 | 0.00 | 0.00 | 67 | 1015.7 |
| 20260905024014 | 85 | 206 | 1.0 | 3.0 | 0.00 | 0.00 | 0.00 | 66 | 1015.5 |
| 20260905023509 | 85 | 217 | 1.0 | 3.0 | 0.00 | 0.00 | 0.00 | 66 | 1015.4 |
| 20260905023008 | 86 | 154 | 2.0 | 3.0 | 0.00 | 0.00 | 0.00 | 65 | 1015.5 |
| 20260905022503 | 86 | 172 | 4.0 | 4.0 | 0.00 | 0.00 | 0.00 | 65 | 1015.2 |
| 20260905021958 | 86 | 198 | 2.0 | 3.0 | 0.00 | 0.00 | 0.00 | 64 | 1015.3 |
| 20260905021458 | 86 | 211 | 1.0 | 6.0 | 0.00 | 0.00 | 0.00 | 64 | 1014.9 |
| 20260905020953 | 86 | 210 | 2.0 | 4.0 | 0.00 | 0.00 | 0.00 | 63 | 1014.9 |
| 20260905020453 | 86 | 129 | 2.0 | 3.0 | 0.00 | 0.00 | 0.00 | 63 | 1014.8 |
| 20260905015953 | 86 | 228 | 4.0 | 4.0 | 0.00 | 0.00 | 0.00 | 63 | 1015.1 |
| 20260905015451 | 87 | 172 | 3.0 | 4.0 | 0.00 | 0.00 | 0.00 | 63 | 1014.9 |
| 20260905014950 | 87 | 183 | 4.0 | 6.0 | 0.00 | 0.00 | 0.00 | 63 | 1014.9 |
| 20260905014446 | 87 | 175 | 2.0 | 6.0 | 0.00 | 0.00 | 0.00 | 63 | 1014.7 |
| 20260905013941 | 87 | 218 | 2.0 | 7.0 | 0.00 | 0.00 | 0.00 | 63 | 1014.8 |
| 20260905013438 | 87 | 180 | 4.0 | 6.0 | 0.00 | 0.00 | 0.00 | 62 | 1014.7 |
| 20260905012933 | 87 | 211 | 6.0 | 7.0 | 0.00 | 0.00 | 0.00 | 62 | 1014.6 |
| 20260905012428 | 88 | 204 | 2.0 | 6.0 | 0.00 | 0.00 | 0.00 | 62 | 1014.6 |
| 20260905011925 | 88 | 184 | 1.0 | 6.0 | 0.00 | 0.00 | 0.00 | 61 | 1014.6 |
| 20260905011420 | 88 | 211 | 3.0 | 7.0 | 0.00 | 0.00 | 0.00 | 61 | 1014.6 |
| 20260905010915 | 88 | 196 | 3.0 | 6.0 | 0.00 | 0.00 | 0.00 | 62 | 1014.5 |
| 20260905010410 | 88 | 167 | 4.0 | 6.0 | 0.00 | 0.00 | 0.00 | 62 | 1014.3 |
| 20260905005906 | 88 | 220 | 4.0 | 4.0 | 0.00 | 0.00 | 0.00 | 62 | 1014.4 |
| 20260905005402 | 89 | 179 | 2.0 | 7.0 | 0.00 | 0.00 | 0.00 | 62 | 1014.4 |
| 20260905004857 | 89 | 201 | 6.0 | 13.0 | 0.00 | 0.00 | 0.00 | 61 | 1014.2 |
| 20260905004357 | 89 | 212 | 7.0 | 11.0 | 0.00 | 0.00 | 0.00 | 61 | 1014.2 |
| 20260905003852 | 89 | 186 | 4.0 | 10.0 | 0.00 | 0.00 | 0.00 | 62 | 1014.2 |
| 20260905003348 | 89 | 194 | 6.0 | 10.0 | 0.00 | 0.00 | 0.00 | 61 | 1014.1 |
| 20260905002844 | 90 | 190 | 1.0 | 7.0 | 0.00 | 0.00 | 0.00 | 60 | 1014.1 |
| 20260905002343 | 90 | 184 | 6.0 | 7.0 | 0.00 | 0.00 | 0.00 | 59 | 1014.0 |
| 20260905001838 | 91 | 246 | 6.0 | 7.0 | 0.00 | 0.00 | 0.00 | 57 | 1013.8 |
| 20260905001338 | 91 | 201 | 6.0 | 10.0 | 0.00 | 0.00 | 0.00 | 54 | 1014.0 |
| 20260905000834 | 92 | 225 | 4.0 | 8.0 | 0.00 | 0.00 | 0.00 | 52 | 1013.8 |
| 20260905000329 | 92 | 164 | 4.0 | 6.0 | 0.00 | 0.00 | 0.00 | 52 | 1013.8 |
| 20260904235824 | 92 | 192 | 3.0 | 9.0 | 0.00 | 0.00 | 0.00 | 51 | 1013.9 |
| 20260904235319 | 92 | 121 | 5.0 | 9.0 | 0.00 | 0.00 | 0.00 | 51 | 1013.9 |
| 20260904234815 | 93 | 153 | 3.0 | 8.0 | 0.00 | 0.00 | 0.00 | 50 | 1013.8 |
| 20260904234314 | 93 | 172 | 4.0 | 6.0 | 0.00 | 0.00 | 0.00 | 50 | 1013.9 |
| 20260904233810 | 93 | 169 | 2.0 | 8.0 | 0.00 | 0.00 | 0.00 | 50 | 1013.6 |
| 20260904233306 | 93 | 226 | 5.0 | 8.0 | 0.00 | 0.00 | 0.00 | 49 | 1013.7 |
| 20260904232803 | 93 | 192 | 6.0 | 10.0 | 0.00 | 0.00 | 0.00 | 49 | 1013.8 |
| 20260904232259 | 93 | 175 | 9.0 | 11.0 | 0.00 | 0.00 | 0.00 | 49 | 1013.6 |
| 20260904231754 | 94 | 211 | 4.0 | 10.0 | 0.00 | 0.00 | 0.00 | 50 | 1013.7 |
| 20260904231249 | 95 | 65 | 3.0 | 7.0 | 0.00 | 0.00 | 0.00 | 47 | 1013.7 |
| 20260904230744 | 95 | 183 | 4.0 | 8.0 | 0.00 | 0.00 | 0.00 | 45 | 1013.4 |
| 20260904230238 | 95 | 200 | 2.0 | 8.0 | 0.00 | 0.00 | 0.00 | 45 | 1013.6 |
| 20260904225738 | 95 | 213 | 5.0 | 8.0 | 0.00 | 0.00 | 0.00 | 45 | 1013.5 |
| 20260904225237 | 95 | 233 | 1.0 | 3.0 | 0.00 | 0.00 | 0.00 | 45 | 1013.6 |
| 20260904224737 | 95 | 166 | 6.0 | 9.0 | 0.00 | 0.00 | 0.00 | 45 | 1013.5 |
| 20260904224232 | 95 | 195 | 6.0 | 8.0 | 0.00 | 0.00 | 0.00 | 45 | 1013.4 |
| 20260904223731 | 96 | 144 | 4.0 | 6.0 | 0.00 | 0.00 | 0.00 | 44 | 1013.6 |
| 20260904223227 | 96 | 235 | 4.0 | 6.0 | 0.00 | 0.00 | 0.00 | 43 | 1013.8 |
| 20260904222722 | 96 | 89 | 2.0 | 6.0 | 0.00 | 0.00 | 0.00 | 42 | 1013.7 |
| 20260904222218 | 96 | 193 | 2.0 | 7.0 | 0.00 | 0.00 | 0.00 | 42 | 1013.7 |
| 20260904221717 | 96 | 135 | 4.0 | 8.0 | 0.00 | 0.00 | 0.00 | 41 | 1013.6 |
| 20260904221213 | 96 | 16 | 2.0 | 3.0 | 0.00 | 0.00 | 0.00 | 41 | 1013.8 |
| 20260904220707 | 97 | 224 | 4.0 | 8.0 | 0.00 | 0.00 | 0.00 | 39 | 1014.0 |
| 20260904220208 | 97 | 214 | 3.0 | 7.0 | 0.00 | 0.00 | 0.00 | 39 | 1014.0 |
| 20260904215707 | 99 | 201 | 4.0 | 4.0 | 0.00 | 0.00 | 0.00 | 38 | 1014.0 |
| 20260904215203 | 97 | 166 | 1.0 | 3.0 | 0.00 | 0.00 | 0.00 | 39 | 1014.0 |
| 20260904214658 | 96 | 177 | 3.0 | 7.0 | 0.00 | 0.00 | 0.00 | 41 | 1014.1 |
| 20260904214154 | 96 | 193 | 5.0 | 9.0 | 0.00 | 0.00 | 0.00 | 42 | 1014.0 |
| 20260904213651 | 96 | 222 | 9.0 | 10.0 | 0.00 | 0.00 | 0.00 | 42 | 1014.1 |
| 20260904213148 | 97 | 207 | 2.0 | 7.0 | 0.00 | 0.00 | 0.00 | 41 | 1014.3 |
| 20260904212643 | 97 | 205 | 7.0 | 9.0 | 0.00 | 0.00 | 0.00 | 39 | 1014.2 |
| 20260904212138 | 96 | 206 | 8.0 | 10.0 | 0.00 | 0.00 | 0.00 | 41 | 1014.4 |
| 20260904211638 | 97 | 143 | 7.0 | 14.0 | 0.00 | 0.00 | 0.00 | 40 | 1014.3 |
| 20260904211133 | 98 | 178 | 7.0 | 13.0 | 0.00 | 0.00 | 0.00 | 38 | 1014.5 |
| 20260904210633 | 98 | 143 | 4.0 | 14.0 | 0.00 | 0.00 | 0.00 | 37 | 1014.4 |
| 20260904210128 | 98 | 224 | 4.0 | 7.0 | 0.00 | 0.00 | 0.00 | 36 | 1014.6 |
| 20260904205624 | 97 | 211 | 6.0 | 7.0 | 0.00 | 0.00 | 0.00 | 37 | 1014.7 |
| 20260904205121 | 97 | 220 | 6.0 | 8.0 | 0.00 | 0.00 | 0.00 | 37 | 1014.6 |
| 20260904204616 | 97 | 198 | 9.0 | 10.0 | 0.00 | 0.00 | 0.00 | 39 | 1014.7 |
| 20260904204112 | 98 | 193 | 6.0 | 13.0 | 0.00 | 0.00 | 0.00 | 39 | 1014.7 |
| 20260904203608 | 97 | 219 | 4.0 | 7.0 | 0.00 | 0.00 | 0.00 | 40 | 1014.5 |
| 20260904203104 | 97 | 203 | 8.0 | 11.0 | 0.00 | 0.00 | 0.00 | 40 | 1014.8 |
| 20260904202600 | 97 | 189 | 6.0 | 8.0 | 0.00 | 0.00 | 0.00 | 41 | 1014.6 |
| 20260904202056 | 97 | 191 | 2.0 | 7.0 | 0.00 | 0.00 | 0.00 | 41 | 1014.9 |
| 20260904201556 | 98 | 195 | 5.0 | 6.0 | 0.00 | 0.00 | 0.00 | 41 | 1014.9 |
| 20260904201051 | 98 | 195 | 4.0 | 10.0 | 0.00 | 0.00 | 0.00 | 41 | 1014.9 |
| 20260904200549 | 97 | 155 | 1.0 | 4.0 | 0.00 | 0.00 | 0.00 | 42 | 1015.0 |
| 20260904200045 | 97 | 238 | 4.0 | 6.0 | 0.00 | 0.00 | 0.00 | 42 | 1015.1 |
| 20260904195544 | 97 | 229 | 10.0 | 14.0 | 0.00 | 0.00 | 0.00 | 43 | 1015.1 |
| 20260904195043 | 97 | 139 | 5.0 | 7.0 | 0.00 | 0.00 | 0.00 | 43 | 1015.1 |
| 20260904194539 | 96 | 67 | 3.0 | 4.0 | 0.00 | 0.00 | 0.00 | 45 | 1015.3 |
| 20260904194034 | 95 | 69 | 3.0 | 6.0 | 0.00 | 0.00 | 0.00 | 48 | 1015.2 |
| 20260904193533 | 94 | 194 | 5.0 | 7.0 | 0.00 | 0.00 | 0.00 | 49 | 1015.2 |
| 20260904193030 | 94 | 208 | 4.0 | 7.0 | 0.00 | 0.00 | 0.00 | 49 | 1015.5 |
| 20260904192529 | 96 | 101 | 4.0 | 9.0 | 0.00 | 0.00 | 0.00 | 47 | 1015.5 |
| 20260904192026 | 96 | 129 | 2.0 | 9.0 | 0.00 | 0.00 | 0.00 | 47 | 1015.6 |
| 20260904191522 | 95 | 254 | 2.0 | 9.0 | 0.00 | 0.00 | 0.00 | 50 | 1015.6 |
| 20260904191018 | 95 | 228 | 2.0 | 13.0 | 0.00 | 0.00 | 0.00 | 50 | 1015.8 |
| 20260904190513 | 96 | 84 | 2.0 | 3.0 | 0.00 | 0.00 | 0.00 | 49 | 1015.7 |
| 20260904190010 | 96 | 114 | 4.0 | 8.0 | 0.00 | 0.00 | 0.00 | 48 | 1015.8 |
| 20260904185506 | 96 | 161 | 7.0 | 10.0 | 0.00 | 0.00 | 0.00 | 48 | 1015.9 |
| 20260904185000 | 96 | 163 | 7.0 | 10.0 | 0.00 | 0.00 | 0.00 | 47 | 1015.9 |
| 20260904184500 | 97 | 190 | 7.0 | 8.0 | 0.00 | 0.00 | 0.00 | 44 | 1016.0 |
| 20260904183955 | 97 | 183 | 1.0 | 7.0 | 0.00 | 0.00 | 0.00 | 40 | 1016.0 |
| 20260904183450 | 95 | 35 | 2.0 | 7.0 | 0.00 | 0.00 | 0.00 | 44 | 1016.2 |
| 20260904182946 | 95 | 228 | 4.0 | 7.0 | 0.00 | 0.00 | 0.00 | 48 | 1016.2 |
| 20260904182441 | 95 | 251 | 4.0 | 10.0 | 0.00 | 0.00 | 0.00 | 48 | 1016.0 |
| 20260904181941 | 96 | 233 | 6.0 | 10.0 | 0.00 | 0.00 | 0.00 | 47 | 1016.2 |
| 20260904181437 | 96 | 157 | 2.0 | 6.0 | 0.00 | 0.00 | 0.00 | 46 | 1016.2 |
| 20260904180931 | 96 | 162 | 6.0 | 11.0 | 0.00 | 0.00 | 0.00 | 47 | 1016.1 |
| 20260904180426 | 96 | 218 | 2.0 | 9.0 | 0.00 | 0.00 | 0.00 | 47 | 1016.4 |
| 20260904175927 | 96 | 84 | 3.0 | 9.0 | 0.00 | 0.00 | 0.00 | 49 | 1016.3 |
| 20260904175426 | 95 | 163 | 4.0 | 7.0 | 0.00 | 0.00 | 0.00 | 49 | 1016.6 |
| 20260904174926 | 94 | 230 | 8.0 | 13.0 | 0.00 | 0.00 | 0.00 | 50 | 1016.7 |
| 20260904174421 | 95 | 194 | 6.0 | 10.0 | 0.00 | 0.00 | 0.00 | 49 | 1016.5 |
| 20260904173917 | 94 | 278 | 0.0 | 3.0 | 0.00 | 0.00 | 0.00 | 51 | 1016.5 |
| 20260904173412 | 93 | 242 | 1.0 | 8.0 | 0.00 | 0.00 | 0.00 | 54 | 1016.7 |
| 20260904172908 | 93 | 91 | 3.0 | 4.0 | 0.00 | 0.00 | 0.00 | 54 | 1016.9 |
| 20260904172408 | 94 | 270 | 3.0 | 10.0 | 0.00 | 0.00 | 0.00 | 54 | 1016.8 |
| 20260904171903 | 94 | 266 | 1.0 | 2.0 | 0.00 | 0.00 | 0.00 | 54 | 1016.8 |
| 20260904171358 | 93 | 56 | 2.0 | 4.0 | 0.00 | 0.00 | 0.00 | 56 | 1016.9 |
| 20260904170854 | 93 | 207 | 5.0 | 6.0 | 0.00 | 0.00 | 0.00 | 55 | 1016.8 |
| 20260904170349 | 93 | 203 | 4.0 | 4.0 | 0.00 | 0.00 | 0.00 | 56 | 1017.1 |
| 20260904165844 | 92 | 7 | 2.0 | 6.0 | 0.00 | 0.00 | 0.00 | 59 | 1017.0 |
| 20260904165343 | 92 | 121 | 4.0 | 7.0 | 0.00 | 0.00 | 0.00 | 59 | 1017.0 |
| 20260904164839 | 92 | 214 | 1.0 | 3.0 | 0.00 | 0.00 | 0.00 | 58 | 1017.0 |
| 20260904164338 | 93 | 105 | 2.0 | 8.0 | 0.00 | 0.00 | 0.00 | 57 | 1016.9 |
| 20260904163835 | 92 | 86 | 2.0 | 4.0 | 0.00 | 0.00 | 0.00 | 57 | 1017.0 |
| 20260904163334 | 92 | 224 | 8.0 | 10.0 | 0.00 | 0.00 | 0.00 | 57 | 1016.8 |
| 20260904162834 | 91 | 15 | 2.0 | 3.0 | 0.00 | 0.00 | 0.00 | 58 | 1017.0 |
| 20260904162329 | 91 | 183 | 4.0 | 7.0 | 0.00 | 0.00 | 0.00 | 58 | 1017.3 |
| 20260904161825 | 90 | 249 | 0.0 | 6.0 | 0.00 | 0.00 | 0.00 | 61 | 1017.0 |
| 20260904161324 | 90 | 183 | 4.0 | 8.0 | 0.00 | 0.00 | 0.00 | 60 | 1017.1 |
| 20260904160820 | 90 | 209 | 4.0 | 4.0 | 0.00 | 0.00 | 0.00 | 60 | 1017.0 |
| 20260904160320 | 89 | 206 | 4.0 | 9.0 | 0.00 | 0.00 | 0.00 | 64 | 1017.0 |
| 20260904155815 | 89 | 214 | 4.0 | 6.0 | 0.00 | 0.00 | 0.00 | 63 | 1017.1 |
| 20260904155310 | 89 | 238 | 4.0 | 11.0 | 0.00 | 0.00 | 0.00 | 65 | 1017.2 |
| 20260904154808 | 87 | 115 | 3.0 | 6.0 | 0.00 | 0.00 | 0.00 | 67 | 1017.1 |
| 20260904154303 | 86 | 238 | 2.0 | 2.0 | 0.00 | 0.00 | 0.00 | 73 | 1017.1 |
| 20260904153759 | 86 | 188 | 3.0 | 6.0 | 0.00 | 0.00 | 0.00 | 74 | 1017.0 |
| 20260904153254 | 86 | 210 | 5.0 | 8.0 | 0.00 | 0.00 | 0.00 | 74 | 1017.1 |
| 20260904152751 | 86 | 209 | 2.0 | 4.0 | 0.00 | 0.00 | 0.00 | 74 | 1017.3 |
| 20260904152245 | 86 | 170 | 3.0 | 4.0 | 0.00 | 0.00 | 0.00 | 74 | 1017.1 |
| 20260904151740 | 86 | 124 | 2.0 | 7.0 | 0.00 | 0.00 | 0.00 | 74 | 1017.2 |
| 20260904151239 | 86 | 178 | 3.0 | 6.0 | 0.00 | 0.00 | 0.00 | 73 | 1017.1 |
| 20260904150736 | 87 | 145 | 2.0 | 4.0 | 0.00 | 0.00 | 0.00 | 72 | 1017.1 |
| 20260904150230 | 86 | 194 | 4.0 | 8.0 | 0.00 | 0.00 | 0.00 | 74 | 1017.1 |
| 20260904145728 | 86 | 184 | 8.0 | 9.0 | 0.00 | 0.00 | 0.00 | 75 | 1017.1 |
| 20260904145224 | 86 | 178 | 6.0 | 10.0 | 0.00 | 0.00 | 0.00 | 75 | 1017.0 |
| 20260904144720 | 85 | 237 | 2.0 | 6.0 | 0.00 | 0.00 | 0.00 | 78 | 1016.9 |
| 20260904144215 | 85 | 189 | 5.0 | 9.0 | 0.00 | 0.00 | 0.00 | 78 | 1016.9 |
| 20260904143710 | 85 | 178 | 5.0 | 6.0 | 0.00 | 0.00 | 0.00 | 77 | 1017.1 |
| 20260904143208 | 85 | 198 | 2.0 | 2.0 | 0.00 | 0.00 | 0.00 | 80 | 1016.8 |
| 20260904142704 | 83 | 224 | 1.0 | 2.0 | 0.00 | 0.00 | 0.00 | 81 | 1016.9 |
| 20260904142159 | 83 | 196 | 4.0 | 9.0 | 0.00 | 0.00 | 0.00 | 82 | 1016.8 |
| 20260904141653 | 83 | 187 | 4.0 | 4.0 | 0.00 | 0.00 | 0.00 | 83 | 1016.9 |
| 20260904141149 | 83 | 142 | 5.0 | 10.0 | 0.00 | 0.00 | 0.00 | 82 | 1016.8 |
| 20260904140644 | 83 | 165 | 5.0 | 8.0 | 0.00 | 0.00 | 0.00 | 82 | 1016.8 |
| 20260904140139 | 83 | 192 | 6.0 | 7.0 | 0.00 | 0.00 | 0.00 | 84 | 1016.9 |
| 20260904135638 | 82 | 195 | 3.0 | 4.0 | 0.00 | 0.00 | 0.00 | 85 | 1016.8 |
| 20260904135134 | 81 | 212 | 3.0 | 3.0 | 0.00 | 0.00 | 0.00 | 88 | 1016.9 |
| 20260904134630 | 81 | 213 | 2.0 | 3.0 | 0.00 | 0.00 | 0.00 | 90 | 1017.1 |
| 20260904134129 | 80 | 162 | 2.0 | 3.0 | 0.00 | 0.00 | 0.00 | 91 | 1017.1 |
| 20260904133624 | 79 | 256 | 0.0 | 6.0 | 0.00 | 0.00 | 0.00 | 93 | 1016.9 |
| 20260904133120 | 79 | 234 | 0.0 | 3.0 | 0.00 | 0.00 | 0.00 | 93 | 1016.9 |
| 20260904132620 | 79 | 226 | 1.0 | 2.0 | 0.00 | 0.00 | 0.00 | 93 | 1016.7 |
| 20260904132114 | 79 | 232 | 0.0 | 6.0 | 0.00 | 0.00 | 0.00 | 93 | 1016.9 |
| 20260904131614 | 78 | 107 | 2.0 | 4.0 | 0.00 | 0.00 | 0.00 | 93 | 1016.9 |
| 20260904131110 | 78 | 231 | 1.0 | 2.0 | 0.00 | 0.00 | 0.00 | 93 | 1016.6 |
| 20260904130610 | 78 | 114 | 1.0 | 2.0 | 0.00 | 0.00 | 0.00 | 93 | 1016.6 |
| 20260904130110 | 78 | 249 | 0.0 | 1.0 | 0.00 | 0.00 | 0.00 | 93 | 1016.6 |
| 20260904125607 | 78 | 117 | 2.0 | 3.0 | 0.00 | 0.00 | 0.00 | 93 | 1016.4 |
| 20260904125107 | 78 | 128 | 1.0 | 3.0 | 0.00 | 0.00 | 0.00 | 93 | 1016.4 |
| 20260904124602 | 78 | 123 | 0.0 | 1.0 | 0.00 | 0.00 | 0.00 | 94 | 1016.3 |
| 20260904124058 | 78 | 230 | 0.0 | 0.0 | 0.00 | 0.00 | 0.00 | 93 | 1016.1 |
| 20260904123557 | 78 | 101 | 0.0 | 0.0 | 0.00 | 0.00 | 0.00 | 94 | 1015.9 |
| 20260904123053 | 78 | 96 | 0.0 | 0.0 | 0.00 | 0.00 | 0.00 | 94 | 1016.1 |
| 20260904122554 | 78 | 233 | 0.0 | 0.0 | 0.00 | 0.00 | 0.00 | 94 | 1016.0 |
| 20260904122048 | 78 | 231 | 0.0 | 0.0 | 0.00 | 0.00 | 0.00 | 94 | 1015.9 |
| 20260904121544 | 78 | 240 | 0.0 | 0.0 | 0.00 | 0.00 | 0.00 | 94 | 1015.9 |
| 20260904121040 | 78 | 225 | 0.0 | 0.0 | 0.00 | 0.00 | 0.00 | 94 | 1015.8 |
| 20260904120536 | 78 | 212 | 0.0 | 0.0 | 0.00 | 0.00 | 0.00 | 93 | 1015.8 |
| 20260904120031 | 78 | 229 | 0.0 | 0.0 | 0.00 | 0.00 | 0.00 | 93 | 1015.8 |
| 20260904115526 | 77 | 247 | 0.0 | 1.0 | 0.00 | 0.00 | 0.00 | 93 | 1015.9 |
| 20260904115021 | 77 | 235 | 0.0 | 1.0 | 0.00 | 0.00 | 0.00 | 93 | 1015.7 |
| 20260904114516 | 77 | 230 | 0.0 | 0.0 | 0.00 | 0.00 | 0.00 | 93 | 1015.6 |
| 20260904114016 | 77 | 221 | 0.0 | 1.0 | 0.00 | 0.00 | 0.00 | 93 | 1015.6 |
| 20260904113515 | 77 | 214 | 0.0 | 1.0 | 0.00 | 0.00 | 0.00 | 93 | 1015.5 |
| 20260904113009 | 77 | 210 | 1.0 | 1.0 | 0.00 | 0.00 | 0.00 | 93 | 1015.5 |
| 20260904112505 | 77 | 224 | 0.0 | 0.0 | 0.00 | 0.00 | 0.00 | 93 | 1015.6 |
| 20260904112000 | 77 | 233 | 0.0 | 0.0 | 0.00 | 0.00 | 0.00 | 93 | 1015.6 |
| 20260904111456 | 77 | 133 | 0.0 | 0.0 | 0.00 | 0.00 | 0.00 | 93 | 1015.5 |
| 20260904110952 | 77 | 234 | 0.0 | 0.0 | 0.00 | 0.00 | 0.00 | 93 | 1015.5 |
| 20260904110451 | 77 | 230 | 0.0 | 0.0 | 0.00 | 0.00 | 0.00 | 93 | 1015.5 |
| 20260904105946 | 77 | 249 | 0.0 | 1.0 | 0.00 | 0.00 | 0.00 | 93 | 1015.5 |
| 20260904105441 | 77 | 197 | 0.0 | 1.0 | 0.00 | 0.00 | 0.00 | 93 | 1015.5 |
| 20260904104936 | 77 | 235 | 0.0 | 0.0 | 0.00 | 0.00 | 0.00 | 93 | 1015.4 |
| 20260904104436 | 77 | 233 | 0.0 | 0.0 | 0.00 | 0.00 | 0.00 | 93 | 1015.3 |
| 20260904103932 | 77 | 227 | 0.0 | 0.0 | 0.00 | 0.00 | 0.00 | 93 | 1015.3 |
| 20260904103428 | 77 | 231 | 0.0 | 0.0 | 0.00 | 0.00 | 0.00 | 92 | 1015.2 |
| 20260904102924 | 77 | 208 | 0.0 | 0.0 | 0.00 | 0.00 | 0.00 | 92 | 1015.1 |
| 20260904102419 | 77 | 226 | 0.0 | 0.0 | 0.00 | 0.00 | 0.00 | 92 | 1015.1 |
| 20260904101915 | 78 | 220 | 0.0 | 0.0 | 0.00 | 0.00 | 0.00 | 92 | 1015.1 |
| 20260904101411 | 78 | 238 | 0.0 | 0.0 | 0.00 | 0.00 | 0.00 | 92 | 1015.2 |
| 20260904100907 | 78 | 222 | 0.0 | 1.0 | 0.00 | 0.00 | 0.00 | 92 | 1015.1 |
| 20260904100403 | 78 | 206 | 1.0 | 1.0 | 0.00 | 0.00 | 0.00 | 92 | 1015.0 |
| 20260904095902 | 78 | 218 | 0.0 | 2.0 | 0.00 | 0.00 | 0.00 | 92 | 1014.9 |
| 20260904095357 | 78 | 228 | 0.0 | 1.0 | 0.00 | 0.00 | 0.00 | 92 | 1015.2 |
| 20260904094852 | 78 | 229 | 1.0 | 2.0 | 0.00 | 0.00 | 0.00 | 92 | 1015.0 |
| 20260904094347 | 78 | 215 | 0.0 | 1.0 | 0.00 | 0.00 | 0.00 | 91 | 1015.1 |
| 20260904093843 | 78 | 229 | 0.0 | 1.0 | 0.00 | 0.00 | 0.00 | 91 | 1015.3 |
| 20260904093343 | 78 | 231 | 0.0 | 1.0 | 0.00 | 0.00 | 0.00 | 91 | 1015.0 |
| 20260904092838 | 78 | 205 | 0.0 | 1.0 | 0.00 | 0.00 | 0.00 | 91 | 1015.2 |
| 20260904092335 | 78 | 187 | 2.0 | 3.0 | 0.00 | 0.00 | 0.00 | 91 | 1015.2 |
| 20260904091831 | 78 | 219 | 0.0 | 2.0 | 0.00 | 0.00 | 0.00 | 91 | 1015.2 |
| 20260904091326 | 78 | 198 | 1.0 | 2.0 | 0.00 | 0.00 | 0.00 | 91 | 1015.2 |
| 20260904090821 | 78 | 235 | 0.0 | 0.0 | 0.00 | 0.00 | 0.00 | 91 | 1015.0 |
| 20260904090317 | 78 | 208 | 0.0 | 1.0 | 0.00 | 0.00 | 0.00 | 91 | 1015.2 |
| 20260904085812 | 78 | 229 | 1.0 | 2.0 | 0.00 | 0.00 | 0.00 | 91 | 1015.2 |
| 20260904085308 | 78 | 156 | 2.0 | 3.0 | 0.00 | 0.00 | 0.00 | 90 | 1015.1 |
| 20260904084801 | 78 | 230 | 2.0 | 2.0 | 0.00 | 0.00 | 0.00 | 90 | 1015.1 |
| 20260904084257 | 78 | 210 | 1.0 | 3.0 | 0.00 | 0.00 | 0.00 | 90 | 1015.1 |
| 20260904083753 | 78 | 220 | 3.0 | 7.0 | 0.00 | 0.00 | 0.00 | 90 | 1015.0 |
| 20260904083251 | 78 | 149 | 4.0 | 4.0 | 0.00 | 0.00 | 0.00 | 90 | 1014.9 |
| 20260904082750 | 78 | 201 | 3.0 | 6.0 | 0.00 | 0.00 | 0.00 | 90 | 1014.8 |
| 20260904082245 | 78 | 181 | 2.0 | 4.0 | 0.00 | 0.00 | 0.00 | 89 | 1014.8 |
| 20260904081741 | 78 | 184 | 4.0 | 6.0 | 0.00 | 0.00 | 0.00 | 89 | 1014.9 |
| 20260904081237 | 78 | 212 | 4.0 | 6.0 | 0.00 | 0.00 | 0.00 | 90 | 1014.8 |
| 20260904080732 | 78 | 165 | 4.0 | 7.0 | 0.00 | 0.00 | 0.00 | 90 | 1014.9 |
| 20260904080227 | 78 | 165 | 5.0 | 7.0 | 0.00 | 0.00 | 0.00 | 90 | 1015.2 |
| 20260904075725 | 78 | 218 | 2.0 | 6.0 | 0.00 | 0.00 | 0.00 | 90 | 1015.2 |
| 20260904075225 | 78 | 213 | 3.0 | 6.0 | 0.00 | 0.00 | 0.00 | 90 | 1015.0 |
| 20260904074724 | 78 | 186 | 2.0 | 6.0 | 0.00 | 0.00 | 0.00 | 90 | 1015.2 |
| 20260904074218 | 78 | 175 | 2.0 | 4.0 | 0.00 | 0.00 | 0.00 | 90 | 1015.3 |
| 20260904073714 | 78 | 202 | 2.0 | 3.0 | 0.00 | 0.00 | 0.00 | 89 | 1015.2 |
| 20260904073210 | 78 | 161 | 5.0 | 7.0 | 0.00 | 0.00 | 0.00 | 89 | 1015.4 |
| 20260904072705 | 78 | 114 | 1.0 | 6.0 | 0.00 | 0.00 | 0.00 | 89 | 1015.4 |
| 20260904072200 | 78 | 201 | 2.0 | 4.0 | 0.00 | 0.00 | 0.00 | 89 | 1015.1 |
| 20260904071656 | 78 | 213 | 1.0 | 3.0 | 0.00 | 0.00 | 0.00 | 89 | 1015.2 |
| 20260904071151 | 78 | 168 | 1.0 | 2.0 | 0.00 | 0.00 | 0.00 | 89 | 1015.4 |
| 20260904070650 | 78 | 229 | 2.0 | 3.0 | 0.00 | 0.00 | 0.00 | 89 | 1015.5 |
| 20260904070149 | 78 | 181 | 2.0 | 4.0 | 0.00 | 0.00 | 0.00 | 89 | 1015.4 |
| 20260904065644 | 78 | 114 | 2.0 | 3.0 | 0.00 | 0.00 | 0.00 | 89 | 1015.3 |
| 20260904065142 | 78 | 188 | 1.0 | 4.0 | 0.00 | 0.00 | 0.00 | 89 | 1015.5 |
| 20260904064636 | 78 | 194 | 1.0 | 4.0 | 0.00 | 0.00 | 0.00 | 89 | 1015.5 |
| 20260904064136 | 78 | 192 | 1.0 | 6.0 | 0.00 | 0.00 | 0.00 | 88 | 1015.4 |
| 20260904063632 | 78 | 196 | 2.0 | 6.0 | 0.00 | 0.00 | 0.00 | 88 | 1015.3 |
| 20260904063128 | 78 | 169 | 2.0 | 2.0 | 0.00 | 0.00 | 0.00 | 88 | 1015.3 |
| 20260904062624 | 78 | 198 | 1.0 | 3.0 | 0.00 | 0.00 | 0.00 | 88 | 1015.2 |
| 20260904062119 | 78 | 150 | 2.0 | 3.0 | 0.00 | 0.00 | 0.00 | 88 | 1015.4 |
| 20260904061615 | 78 | 52 | 1.0 | 1.0 | 0.00 | 0.00 | 0.00 | 88 | 1015.4 |
| 20260904061111 | 78 | 176 | 1.0 | 1.0 | 0.00 | 0.00 | 0.00 | 88 | 1015.3 |
| 20260904060607 | 78 | 189 | 1.0 | 3.0 | 0.00 | 0.00 | 0.00 | 88 | 1015.5 |
| 20260904060103 | 78 | 200 | 1.0 | 2.0 | 0.00 | 0.00 | 0.00 | 88 | 1015.5 |
| 20260904055557 | 78 | 185 | 2.0 | 3.0 | 0.00 | 0.00 | 0.00 | 88 | 1015.6 |
| 20260904055053 | 78 | 179 | 1.0 | 2.0 | 0.00 | 0.00 | 0.00 | 87 | 1015.5 |
| 20260904054548 | 78 | 233 | 3.0 | 3.0 | 0.00 | 0.00 | 0.00 | 87 | 1015.6 |
| 20260904054044 | 78 | 95 | 1.0 | 3.0 | 0.00 | 0.00 | 0.00 | 87 | 1015.4 |
| 20260904053543 | 78 | 143 | 1.0 | 2.0 | 0.00 | 0.00 | 0.00 | 87 | 1015.4 |
| 20260904053039 | 78 | 219 | 2.0 | 2.0 | 0.00 | 0.00 | 0.00 | 87 | 1015.3 |